TimeEST,TemperatureF,Dew PointF,Humidity,Sea Level PressureIn,VisibilityMPH,Wind Direction,Wind SpeedMPH,Gust SpeedMPH,PrecipitationIn,Events,Conditions,WindDirDegrees,DateUTC
12:53 AM,46.9,46.0,97,29.93,5.0,Calm,Calm,-,0.02,,Overcast,0,2012-11-07 05:53:00
1:53 AM,46.9,46.0,97,29.93,4.0,Calm,Calm,-,0.01,Rain,Light Rain,0,2012-11-07 06:53:00
2:40 AM,46.4,46.4,100,29.92,3.0,Calm,Calm,-,0.04,Rain,Light Rain,0,2012-11-07 07:40:00
2:53 AM,46.9,46.0,97,29.91,3.0,SW,3.5,-,0.04,Rain,Light Rain,230,2012-11-07 07:53:00
3:05 AM,46.4,46.4,100,29.92,2.5,Calm,Calm,-,0.02,Rain,Light Rain,0,2012-11-07 08:05:00
3:19 AM,46.4,46.4,100,29.91,2.5,Calm,Calm,-,0.03,Rain,Light Rain,0,2012-11-07 08:19:00
3:28 AM,46.4,46.4,100,29.91,3.0,Calm,Calm,-,0.03,Rain,Light Rain,0,2012-11-07 08:28:00
3:44 AM,46.4,46.4,100,29.91,4.0,Calm,Calm,-,0.03,,Overcast,0,2012-11-07 08:44:00
3:53 AM,46.9,46.9,100,29.90,4.0,Calm,Calm,-,0.03,,Overcast,0,2012-11-07 08:53:00
4:14 AM,46.4,46.4,100,29.90,4.0,Calm,Calm,-,N/A,,Overcast,0,2012-11-07 09:14:00
4:28 AM,46.4,46.4,100,29.90,4.0,Calm,Calm,-,N/A,,Overcast,0,2012-11-07 09:28:00
4:36 AM,46.4,46.4,100,29.90,4.0,Calm,Calm,-,N/A,,Overcast,0,2012-11-07 09:36:00
4:44 AM,46.4,46.4,100,29.90,4.0,Calm,Calm,-,N/A,,Overcast,0,2012-11-07 09:44:00
4:53 AM,46.9,46.9,100,29.90,3.0,Calm,Calm,-,N/A,,Overcast,0,2012-11-07 09:53:00
5:53 AM,46.0,46.0,100,29.90,5.0,Calm,Calm,-,0.00,Rain,Light Rain,0,2012-11-07 10:53:00
6:53 AM,46.4,46.4,100,29.91,5.0,Calm,Calm,-,N/A,,Overcast,0,2012-11-07 11:53:00
7:53 AM,46.9,46.9,100,29.91,2.5,Calm,Calm,-,N/A,,Overcast,0,2012-11-07 12:53:00
8:06 AM,46.4,46.4,100,29.92,3.0,Calm,Calm,-,N/A,,Overcast,0,2012-11-07 13:06:00
8:21 AM,46.4,46.4,100,29.93,4.0,Calm,Calm,-,N/A,,Overcast,0,2012-11-07 13:21:00
8:51 AM,48.2,46.4,93,29.93,8.0,Calm,Calm,-,N/A,,Overcast,0,2012-11-07 13:51:00
8:53 AM,48.0,46.0,93,29.93,8.0,West,3.5,-,N/A,,Overcast,260,2012-11-07 13:53:00
9:53 AM,48.0,44.1,86,29.94,10.0,Variable,3.5,-,N/A,,Overcast,0,2012-11-07 14:53:00
10:53 AM,48.9,45.0,86,29.94,10.0,West,5.8,-,N/A,,Overcast,270,2012-11-07 15:53:00
11:53 AM,51.1,42.1,71,29.92,10.0,NW,9.2,-,N/A,,Overcast,310,2012-11-07 16:53:00
12:53 PM,53.1,39.9,61,29.90,10.0,NNW,8.1,-,N/A,,Overcast,330,2012-11-07 17:53:00
1:53 PM,54.0,37.9,55,29.90,10.0,NNW,10.4,-,N/A,,Overcast,330,2012-11-07 18:53:00
2:53 PM,53.1,37.0,55,29.90,10.0,NNW,6.9,-,N/A,,Overcast,340,2012-11-07 19:53:00
3:53 PM,52.0,37.0,57,29.92,10.0,North,6.9,-,N/A,,Overcast,350,2012-11-07 20:53:00
4:53 PM,51.1,42.1,71,29.94,10.0,NE,8.1,-,N/A,,Mostly Cloudy,50,2012-11-07 21:53:00
5:53 PM,48.0,43.0,83,29.97,10.0,NE,3.5,-,N/A,,Scattered Clouds,40,2012-11-07 22:53:00
6:53 PM,46.0,41.0,83,30.01,10.0,NNE,3.5,-,N/A,,Partly Cloudy,20,2012-11-07 23:53:00
7:53 PM,44.1,39.9,85,30.02,10.0,WNW,4.6,-,N/A,,Clear,300,2012-11-08 00:53:00
8:53 PM,41.0,39.0,93,30.05,10.0,NNW,3.5,-,N/A,,Scattered Clouds,340,2012-11-08 01:53:00
9:53 PM,42.1,39.0,89,30.07,10.0,NW,4.6,-,N/A,,Clear,320,2012-11-08 02:53:00
10:53 PM,41.0,39.0,93,30.07,10.0,NW,5.8,-,N/A,,Clear,320,2012-11-08 03:53:00
11:53 PM,42.1,39.0,89,30.07,10.0,NNE,3.5,-,N/A,,Clear,30,2012-11-08 04:53:00